Retour au catalogue

CZ-6A DEB

ActifSSO
NORAD 56597·DEBRIS·🇨🇳 China

Lancé Nov 11, 2022 depuis Taiyuan Satellite Launch Center

Loading…

Prochains Passages (prochaines 24 heures)

TLE

FraisSource: Space-Track

Époque: Sep 12, 2026, 19:26 UTC

1 56597U 22151ADV 26255.81024953  .00002250  00000-0  10010-2 0  9998
2 56597  98.9130 282.5055 0102846  10.0398 350.2801 14.21122798174810

Suivez CZ-6A DEB en temps réel avec AllMySat

Download on the App Store